Location: Emory University Observatory
(33.7903°N, 84.3267°W)
Time: 21:14:23
(UTC-04:00)

Vanguard 1 Rocket - Visible Passes

Search period start: 26 April 2018 00:00
Search period end: 06 May 2018 00:00
Orbit: 654 x 4223 km, 34.3° (Epoch: 25 April)

Date Brightness Start Highest point End Pass type
(mag) Time Alt. Az. Time Alt. Az. Time Alt. Az.
26 Apr 11.6 02:50:30 13° SSE 02:58:26 15° SE 03:09:32 10° ESE visible
26 Apr 10.9 05:07:48 13° SSW 05:29:15 44° SE 05:45:33 10° E visible
27 Apr 11.2 04:00:43 20° S 04:15:03 32° SE 04:32:04 10° E visible
27 Apr 10.5 06:21:14 10° SW 06:46:08 65° SSE 07:01:06 10° ENE visible
28 Apr 11.4 02:53:33 19° SSE 03:01:00 21° SE 03:16:09 10° E visible
28 Apr 10.8 05:10:50 16° SSW 05:31:53 52° SSE 05:49:05 10° ENE visible
29 Apr 11.7 01:46:19 11° SE 01:47:12 11° SE 01:52:05 10° ESE visible
29 Apr 11.0 04:03:35 25° S 04:17:32 40° SE 04:36:00 10° E visible
29 Apr 10.4 06:23:22 10° SW 06:48:58 72° SSE 07:04:25 10° ENE visible
30 Apr 11.2 02:56:16 25° SSE 03:03:23 28° SE 03:21:09 10° E visible
30 Apr 10.6 05:13:32 19° SW 05:34:31 60° SSE 05:52:27 10° ENE visible
01 May 11.5 01:48:52 16° SE 01:49:38 16° SE 02:02:31 10° E visible
01 May 10.9 04:06:08 29° SSW 04:19:56 48° SE 04:39:36 10° ENE visible
02 May 11.0 02:58:40 31° SSE 03:05:38 35° SE 03:25:22 10° E visible
02 May 10.6 05:15:55 20° SW 05:37:08 68° SSE 05:55:43 10° ENE visible
03 May 11.3 01:51:08 22° SE 01:51:51 23° SE 02:08:37 10° E visible
03 May 10.7 04:08:22 33° SSW 04:22:20 56° SSE 04:42:59 10° ENE visible
04 May 11.7 00:43:31 10° ESE 00:43:31 10° ESE 00:43:58 10° ESE visible
04 May 10.8 03:00:45 37° SSE 03:07:49 42° SE 03:29:05 10° ENE visible
04 May 10.5 05:18:00 20° SW 05:39:48 75° SSE 05:58:56 10° ENE visible
05 May 11.1 01:53:04 29° SE 01:53:56 29° SE 02:13:20 10° E visible
05 May 10.6 04:10:18 34° SSW 04:24:43 63° SSE 04:46:12 10° ENE visible
